PTBRF SBGO-SBUL

Flight info

Callsign PTBRF
Flight time N/A
Altitude 7000
Route SELMU DCT GUARI
Aircraft C172/L-SFG/C

Departure

Time 2026-05-01 14:44
Airport Santa Genoveva International Airport (SBGO)

Arrival

Time N/A
Airport Ten. Cel. Aviador César Bombonato Airport (SBUL)
Time Latitude Longitude Altitude Speed Heading
2026-05-01 14:41 -16.62779 -49.23157 2454 ft 0 kts 340°
2026-05-01 14:42 -16.62768 -49.23162 2454 ft 5 kts 340°
2026-05-01 14:42 -16.62708 -49.23182 2454 ft 13 kts 348°
2026-05-01 14:42 -16.62642 -49.23172 2454 ft 10 kts 34°
2026-05-01 14:43 -16.62632 -49.23162 2454 ft 5 kts 60°
2026-05-01 14:43 -16.62647 -49.23106 2454 ft 13 kts 118°
2026-05-01 14:43 -16.62773 -49.22895 2454 ft 55 kts 122°
2026-05-01 14:43 -16.63019 -49.22489 2501 ft 76 kts 122°
2026-05-01 14:44 -16.63329 -49.21997 2623 ft 84 kts 124°
2026-05-01 14:44 -16.63977 -49.20990 2987 ft 83 kts 124°
2026-05-01 14:44 -16.64308 -49.20497 3165 ft 82 kts 126°
2026-05-01 14:45 -16.64641 -49.20021 3354 ft 81 kts 127°
2026-05-01 14:45 -16.65338 -49.19079 3640 ft 89 kts 126°
2026-05-01 14:45 -16.65527 -49.18377 3594 ft 107 kts 99°
2026-05-01 14:46 -16.65739 -49.17636 3649 ft 113 kts 112°
2026-05-01 14:46 -16.66737 -49.16523 3638 ft 108 kts 172°
2026-05-01 14:46 -16.67417 -49.16730 3705 ft 102 kts 212°
2026-05-01 14:47 -16.68044 -49.17129 3687 ft 111 kts 208°
2026-05-01 14:47 -16.68747 -49.17481 3712 ft 113 kts 204°
2026-05-01 14:47 -16.69486 -49.17798 3718 ft 115 kts 201°
2026-05-01 14:48 -16.70983 -49.18392 3756 ft 117 kts 200°
2026-05-01 14:48 -16.71754 -49.18690 3775 ft 118 kts 200°
2026-05-01 14:48 -16.73227 -49.19255 3975 ft 109 kts 200°
2026-05-01 14:49 -16.74633 -49.19793 4168 ft 106 kts 200°
2026-05-01 14:49 -16.76003 -49.20318 4386 ft 102 kts 200°
2026-05-01 14:50 -16.76864 -49.20647 4583 ft 96 kts 200°
2026-05-01 14:50 -16.78482 -49.21267 4962 ft 89 kts 200°
2026-05-01 14:51 -16.79051 -49.21485 5103 ft 87 kts 200°
2026-05-01 14:51 -16.80177 -49.21916 5401 ft 84 kts 200°
2026-05-01 14:52 -16.81291 -49.22342 5696 ft 84 kts 200°
2026-05-01 14:52 -16.81839 -49.22552 5829 ft 82 kts 200°
2026-05-01 14:52 -16.82858 -49.22941 6102 ft 73 kts 205°
2026-05-01 14:53 -16.83318 -49.23115 6239 ft 67 kts 209°
2026-05-01 14:53 -16.83727 -49.23271 6384 ft 58 kts 214°
2026-05-01 14:53 -16.84080 -49.23406 6527 ft 50 kts 218°
2026-05-01 14:53 -16.84379 -49.23524 6631 ft 45 kts 221°
2026-05-01 14:54 -16.84675 -49.23639 6696 ft 45 kts 220°
2026-05-01 14:54 -16.84957 -49.23746 6682 ft 41 kts 221°
2026-05-01 14:54 -16.85234 -49.23853 6523 ft 43 kts 221°
2026-05-01 14:54 -16.85436 -49.23934 6395 ft 50 kts 218°
2026-05-01 14:55 -16.85780 -49.24066 6227 ft 55 kts 212°
2026-05-01 14:55 -16.86146 -49.24205 6082 ft 56 kts 207°
2026-05-01 14:55 -16.86727 -49.24431 5702 ft 98 kts 201°
2026-05-01 14:55 -16.87237 -49.24636 5505 ft 123 kts 201°
2026-05-01 14:56 -16.88044 -49.24923 5507 ft 122 kts 190°
2026-05-01 14:56 -16.88926 -49.24819 5221 ft 137 kts 166°
2026-05-01 14:56 -16.89911 -49.24598 4763 ft 136 kts 170°
2026-05-01 14:56 -16.90742 -49.24453 4869 ft 115 kts 171°
2026-05-01 14:57 -16.91505 -49.24340 4903 ft 106 kts 173°
2026-05-01 14:57 -16.92950 -49.24199 4847 ft 103 kts 176°
2026-05-01 14:57 -16.93660 -49.24149 4818 ft 103 kts 176°
2026-05-01 14:58 -16.94380 -49.24103 4807 ft 101 kts 176°
2026-05-01 14:58 -16.95069 -49.24061 4847 ft 96 kts 176°
2026-05-01 14:58 -16.95716 -49.24022 4869 ft 93 kts 176°
2026-05-01 14:58 -16.96359 -49.23984 4897 ft 92 kts 176°
2026-05-01 14:59 -16.96998 -49.23946 4923 ft 93 kts 176°
2026-05-01 14:59 -16.97646 -49.23908 4944 ft 94 kts 176°
2026-05-01 14:59 -16.98296 -49.23870 4974 ft 93 kts 176°
2026-05-01 14:59 -16.98949 -49.23832 4992 ft 95 kts 176°
2026-05-01 15:00 -17.00291 -49.23753 4997 ft 98 kts 176°
2026-05-01 15:00 -17.00977 -49.23712 4998 ft 99 kts 176°
2026-05-01 15:00 -17.01671 -49.23671 4999 ft 100 kts 176°
2026-05-01 15:01 -17.02372 -49.23630 4998 ft 101 kts 176°
2026-05-01 15:01 -17.03065 -49.23589 4998 ft 101 kts 176°
2026-05-01 15:01 -17.03767 -49.23548 4999 ft 101 kts 176°
2026-05-01 15:01 -17.04471 -49.23507 4999 ft 101 kts 176°
2026-05-01 15:02 -17.05177 -49.23465 4999 ft 101 kts 176°
2026-05-01 15:02 -17.05644 -49.23438 4999 ft 101 kts 176°
2026-05-01 15:02 -17.06587 -49.23382 4999 ft 102 kts 176°
2026-05-01 15:02 -17.07294 -49.23341 5002 ft 101 kts 176°
2026-05-01 15:03 -17.08000 -49.23299 4999 ft 102 kts 176°
2026-05-01 15:03 -17.08707 -49.23257 5002 ft 101 kts 176°
2026-05-01 15:03 -17.09413 -49.23216 4999 ft 102 kts 176°
2026-05-01 15:03 -17.10110 -49.23175 5002 ft 101 kts 176°
2026-05-01 15:04 -17.10818 -49.23133 4999 ft 102 kts 176°
2026-05-01 15:04 -17.11525 -49.23091 5001 ft 102 kts 176°
2026-05-01 15:04 -17.12231 -49.23050 5000 ft 102 kts 176°
2026-05-01 15:04 -17.12941 -49.23008 5001 ft 102 kts 176°
2026-05-01 15:05 -17.13646 -49.22967 5000 ft 102 kts 176°
2026-05-01 15:05 -17.14356 -49.22925 5001 ft 102 kts 176°
2026-05-01 15:05 -17.15062 -49.22883 5000 ft 102 kts 176°
2026-05-01 15:05 -17.15768 -49.22842 5001 ft 102 kts 176°
2026-05-01 15:06 -17.16477 -49.22800 5001 ft 102 kts 176°
2026-05-01 15:06 -17.17177 -49.22759 5000 ft 102 kts 176°
2026-05-01 15:06 -17.17885 -49.22717 5001 ft 102 kts 176°
2026-05-01 15:06 -17.18591 -49.22675 5000 ft 102 kts 176°
2026-05-01 15:07 -17.19300 -49.22633 5002 ft 102 kts 176°
2026-05-01 15:07 -17.20006 -49.22592 4999 ft 102 kts 176°
2026-05-01 15:07 -17.20707 -49.22550 5001 ft 102 kts 176°
2026-05-01 15:07 -17.21414 -49.22509 4999 ft 102 kts 176°
2026-05-01 15:08 -17.22121 -49.22467 5002 ft 102 kts 176°
2026-05-01 15:08 -17.22828 -49.22426 4999 ft 102 kts 176°
2026-05-01 15:08 -17.23535 -49.22384 5001 ft 102 kts 176°
2026-05-01 15:08 -17.24245 -49.22342 5000 ft 102 kts 176°
2026-05-01 15:09 -17.24951 -49.22300 5000 ft 102 kts 176°
2026-05-01 15:09 -17.25658 -49.22259 5001 ft 102 kts 176°
2026-05-01 15:09 -17.26365 -49.22217 5000 ft 102 kts 176°
2026-05-01 15:09 -17.26991 -49.22180 5000 ft 101 kts 176°
2026-05-01 15:10 -17.27696 -49.22138 5000 ft 102 kts 176°
2026-05-01 15:10 -17.29112 -49.22055 4999 ft 102 kts 176°
2026-05-01 15:10 -17.29812 -49.22014 5002 ft 102 kts 176°
2026-05-01 15:11 -17.30515 -49.21934 4988 ft 103 kts 163°
2026-05-01 15:11 -17.31743 -49.21212 5000 ft 102 kts 148°
2026-05-01 15:11 -17.32341 -49.20818 5001 ft 102 kts 148°
2026-05-01 15:12 -17.32940 -49.20421 5001 ft 102 kts 147°
2026-05-01 15:12 -17.34137 -49.19626 5002 ft 102 kts 147°
2026-05-01 15:12 -17.34737 -49.19227 5000 ft 102 kts 147°
2026-05-01 15:13 -17.36529 -49.18035 5002 ft 102 kts 147°
2026-05-01 15:14 -17.37725 -49.17239 5001 ft 102 kts 147°
2026-05-01 15:14 -17.38324 -49.16841 5000 ft 102 kts 147°
2026-05-01 15:14 -17.39520 -49.16045 5001 ft 102 kts 147°
2026-05-01 15:15 -17.40715 -49.15249 5001 ft 102 kts 147°
2026-05-01 15:15 -17.41904 -49.14458 5001 ft 102 kts 147°
2026-05-01 15:16 -17.43102 -49.13661 5002 ft 102 kts 147°
2026-05-01 15:16 -17.44298 -49.12864 5002 ft 102 kts 147°
2026-05-01 15:17 -17.45486 -49.12073 5001 ft 102 kts 147°
2026-05-01 15:18 -17.47329 -49.10845 5015 ft 105 kts 148°
2026-05-01 15:18 -17.47990 -49.10409 4970 ft 117 kts 147°
2026-05-01 15:19 -17.49995 -49.09069 4958 ft 95 kts 147°
2026-05-01 15:19 -17.51043 -49.08371 4998 ft 86 kts 147°
2026-05-01 15:19 -17.51545 -49.08036 4998 ft 85 kts 147°
2026-05-01 15:20 -17.52640 -49.07306 4993 ft 105 kts 147°
2026-05-01 15:20 -17.53274 -49.06883 4994 ft 111 kts 147°
2026-05-01 15:20 -17.53941 -49.06439 4994 ft 115 kts 147°
2026-05-01 15:21 -17.54623 -49.05984 4996 ft 117 kts 147°
2026-05-01 15:21 -17.55318 -49.05520 4997 ft 119 kts 147°
2026-05-01 15:21 -17.56018 -49.05054 4998 ft 119 kts 147°
2026-05-01 15:21 -17.56722 -49.04584 4998 ft 120 kts 147°
2026-05-01 15:22 -17.58118 -49.03653 5002 ft 118 kts 147°
2026-05-01 15:22 -17.58805 -49.03195 5003 ft 116 kts 147°
2026-05-01 15:22 -17.59487 -49.02739 5003 ft 116 kts 147°
2026-05-01 15:23 -17.60166 -49.02286 5002 ft 115 kts 147°
2026-05-01 15:23 -17.60842 -49.01835 5002 ft 115 kts 147°
2026-05-01 15:23 -17.61519 -49.01383 5002 ft 115 kts 147°
2026-05-01 15:23 -17.62186 -49.00938 5002 ft 115 kts 147°
2026-05-01 15:24 -17.62862 -49.00487 5001 ft 115 kts 147°
2026-05-01 15:24 -17.63536 -49.00037 5001 ft 115 kts 147°
2026-05-01 15:24 -17.64212 -48.99586 4999 ft 115 kts 147°
2026-05-01 15:24 -17.64878 -48.99141 5001 ft 115 kts 147°
2026-05-01 15:25 -17.65552 -48.98690 5000 ft 115 kts 147°
2026-05-01 15:25 -17.66225 -48.98241 5000 ft 115 kts 147°
2026-05-01 15:25 -17.66897 -48.97793 5002 ft 114 kts 147°
2026-05-01 15:25 -17.67571 -48.97342 5000 ft 115 kts 147°
2026-05-01 15:26 -17.68243 -48.96893 5001 ft 115 kts 147°
2026-05-01 15:26 -17.68925 -48.96438 5001 ft 114 kts 147°
2026-05-01 15:26 -17.69589 -48.95994 4999 ft 115 kts 147°
2026-05-01 15:26 -17.70262 -48.95544 5001 ft 115 kts 147°
2026-05-01 15:27 -17.70937 -48.95094 5001 ft 115 kts 147°
2026-05-01 15:27 -17.71610 -48.94644 5000 ft 115 kts 147°
2026-05-01 15:27 -17.72284 -48.94193 5002 ft 114 kts 147°
2026-05-01 15:28 -17.73621 -48.93299 5000 ft 115 kts 147°
2026-05-01 15:28 -17.74295 -48.92849 5001 ft 114 kts 147°
2026-05-01 15:28 -17.74969 -48.92398 5000 ft 115 kts 147°
2026-05-01 15:29 -17.76315 -48.91498 5001 ft 115 kts 147°
2026-05-01 15:29 -17.76988 -48.91048 4999 ft 115 kts 147°
2026-05-01 15:29 -17.78107 -48.90299 4999 ft 115 kts 147°
2026-05-01 15:30 -17.79453 -48.89398 5000 ft 115 kts 147°
2026-05-01 15:31 -17.82140 -48.87601 5001 ft 115 kts 147°
2026-05-01 15:31 -17.83487 -48.86699 5002 ft 115 kts 147°
2026-05-01 15:32 -17.84832 -48.85798 5001 ft 115 kts 147°
2026-05-01 15:32 -17.86177 -48.84898 5000 ft 115 kts 147°
2026-05-01 15:33 -17.88188 -48.83551 5002 ft 115 kts 147°
2026-05-01 15:34 -17.90207 -48.82198 5001 ft 115 kts 147°